Temp
24 23 26 25 24 25 28 31 33 32 32 33 30 26 26 24 29 25 24 23 23 23 21 21 21 22 22 21 22 22 22 22 22 22 22 22 21 22 21 21 21 21 21 21 21 21 21 21 21
24 25 25 22 24 26 31 33 28 31 34 31 29 26 29 28 28 26 25 25 25 24 23 22 22 22 22 22 22 22 22 22 22 22 22 22 21 21 21 21 21 21 21 21 21 21 21 21 21
27 28 25 26 30 26 32 33 35 35 34 35 31 27 31 28 28 27 26 26 26 25 23 22 22 22 21 22 22 22 21 22 22 22 22 21 21 21 21 21 21 21 21 21 21 21 21 21 21
28 30 32 33 33 29 35 36 37 36 35 35 34 31 31 30 28 27 27 27 26 25 23 22 22 21 21 21 21 21 22 22 22 22 21 22 22 21 21 21 21 21 21 21 21 21 21 21 21
30 27 32 37 37 36 37 35 34 35 34 34 33 30 29 30 29 28 27 26 25 25 23 22 22 21 21 21 21 21 21 22 22 22 21 21 21 21 22 21 21 21 21 21 21 21 21 22 22
31 33 33 37 37 38 38 36 35 36 35 34 32 30 29 30 28 28 27 26 26 25 24 22 21 21 22 22 22 21 22 22 22 22 22 22 22 22 22 22 22 22 22 22 22 22 22 22 23
34 35 36 38 37 37 38 39 37 37 36 34 33 29 31 31 29 29 29 28 28 26 24 22 22 22 22 21 21 21 22 22 22 22 23 23 22 23 23 23 23 23 23 22 22 23 23 23 24
35 36 36 39 38 37 38 38 38 38 35 37 34 31 31 32 30 30 29 27 28 26 25 24 23 22 22 21 21 22 22 22 22 23 23 23 22 23 23 23 23 24 23 24 24 24 24 24 24
28 28 35 37 39 37 38 37 39 38 36 36 35 33 33 33 33 31 28 29 28 27 27 25 24 24 23 23 22 22 22 22 23 23 24 24 23 24 23 24 25 25 24 24 24 24 24 24 24
24 25 34 34 38 38 39 38 37 36 36 36 35 35 33 33 33 32 30 29 28 28 27 26 26 25 25 25 23 23 23 23 23 24 24 25 24 24 25 25 25 25 24 24 24 23 24 23 25
28 25 33 36 38 40 39 38 38 36 35 36 34 33 33 33 33 33 31 30 27 28 27 27 27 26 26 26 25 24 24 25 25 25 25 25 26 26 26 26 25 25 24 24 24 25 26 25 25
31 35 35 38 41 39 39 39 38 38 37 37 35 34 33 33 34 33 32 31 29 28 29 28 27 27 27 26 26 26 26 27 26 26 25 25 25 26 26 26 26 26 25 25 25 24 23 25 25
39 36 38 42 41 40 40 39 38 38 38 37 36 34 33 33 33 33 33 32 29 29 29 28 27 27 27 27 28 28 28 28 28 27 26 26 26 26 26 26 26 26 26 26 25 25 25 25 25
41 41 41 42 41 41 39 39 38 38 38 37 35 34 34 34 33 33 33 32 31 30 30 29 27 27 27 26 26 27 28 28 28 28 26 26 26 26 26 25 25 25 25 25 25 25 24 25 25
41 40 41 41 41 40 40 38 38 38 38 37 35 34 34 34 34 33 33 32 31 30 30 29 28 26 26 26 26 26 27 27 27 27 26 26 25 25 25 24 24 25 25 25 24 24 24 24 25
39 40 39 41 41 41 40 36 39 38 38 36 35 35 35 34 34 34 33 32 31 30 30 29 29 27 26 26 26 26 26 27 27 27 27 26 26 25 25 24 25 25 25 25 24 24 24 25 26
38 38 39 39 41 40 39 33 36 39 38 37 36 35 35 35 35 34 33 32 31 30 30 29 29 29 26 26 26 26 26 27 27 26 27 26 25 25 24 25 25 24 25 25 24 24 24 25 25
37 38 39 39 40 40 38 32 34 37 38 37 37 36 35 35 35 34 34 33 32 31 30 29 29 29 27 26 26 26 27 26 26 27 27 26 25 25 24 25 25 25 25 24 24 24 24 24 25
39 39 39 40 39 40 37 29 27 32 37 38 37 37 36 36 36 35 34 33 32 31 30 29 29 29 27 27 26 26 25 25 27 27 27 25 25 25 24 24 24 25 24 24 24 24 24 25 25
38 39 40 41 38 39 39 35 33 37 38 39 38 37 37 36 36 35 34 33 32 31 30 29 28 28 28 27 27 26 26 26 27 27 27 26 25 25 25 24 24 24 25 24 24 23 23 25 25
38 38 39 40 40 40 40 39 39 39 39 39 39 39 38 37 36 35 34 33 33 31 30 29 28 27 27 27 27 26 26 27 28 27 27 26 25 25 25 24 24 24 25 24 23 23 23 24 24
37 40 40 40 39 37 39 37 38 39 38 38 39 39 39 38 37 37 35 34 33 32 30 28 27 27 26 27 26 27 27 28 29 28 28 26 26 25 25 25 24 24 24 24 24 24 23 23 24
38 40 40 40 39 38 36 36 38 38 38 39 39 39 40 39 38 38 36 34 33 33 31 29 27 27 26 26 26 27 28 28 28 29 28 26 26 26 25 25 24 24 24 24 23 23 23 22 24
40 39 40 40 40 36 38 36 37 38 35 38 40 40 40 40 39 38 38 35 34 33 32 30 27 27 26 26 26 27 27 28 29 29 27 27 25 25 25 25 24 23 24 23 23 22 22 22 22
39 38 37 36 37 37 40 37 37 39 39 40 38 36 41 41 40 38 38 37 34 33 33 31 28 27 26 26 25 27 26 27 28 28 27 27 26 25 25 24 24 23 23 23 23 22 22 22 22
38 38 37 34 36 37 40 39 39 39 40 38 36 36 42 41 40 39 37 37 35 34 33 32 29 27 26 26 26 25 27 26 27 27 28 28 28 27 26 24 24 23 23 23 22 22 22 22 22
38 37 39 38 38 38 40 40 42 41 40 39 39 41 42 41 41 40 39 38 37 34 33 32 29 27 27 26 26 26 26 26 26 27 27 27 28 28 26 25 23 23 23 23 22 22 22 22 22
38 39 37 37 35 35 39 38 39 39 35 37 40 41 42 42 41 41 40 38 37 35 33 32 31 28 27 27 26 26 25 25 26 27 27 27 27 28 26 24 23 23 23 23 22 22 22 22 22
37 37 38 38 38 37 37 39 42 41 39 40 40 41 42 43 42 41 40 39 37 36 34 32 31 29 27 27 26 26 26 25 25 26 27 27 27 27 25 24 23 23 23 22 22 22 22 22 22
38 37 37 36 35 38 38 39 43 42 41 41 41 42 42 42 43 42 41 39 37 36 35 33 32 31 28 27 27 26 26 26 25 25 27 27 26 27 27 24 23 23 22 22 22 22 22 22 21
Height
755 760 766 770 789 776 777 762 736 747 748 739 746 767 775 776 773 805 793 798 801 804 807 809 812 815 817 819 820 823 825 828 830 832 832 834 835 836 837 838 839 839 840 840 839 839 839 838 838
759 763 757 777 795 792 768 742 766 746 734 741 753 769 764 777 767 784 793 799 802 805 809 811 813 817 819 820 822 825 827 830 832 833 834 836 837 838 838 839 840 840 841 841 840 840 839 839 838
755 755 758 748 761 794 766 745 733 725 729 731 749 758 760 779 777 783 794 799 803 806 809 812 816 818 820 822 825 828 830 832 833 835 835 837 838 838 839 840 840 841 841 841 841 841 840 839 838
750 745 743 748 755 764 737 729 720 726 728 733 742 763 763 771 778 789 795 799 804 808 811 814 816 819 822 824 827 830 832 833 834 835 837 837 838 839 840 841 841 841 840 840 840 840 840 840 839
742 747 746 728 734 730 721 726 725 730 735 743 751 770 774 775 783 790 796 801 805 809 812 814 817 821 823 826 829 831 832 834 835 836 838 839 839 840 841 841 841 841 841 841 841 841 840 840 839
747 733 749 737 734 719 713 716 728 726 734 745 760 773 776 776 786 792 797 800 804 808 813 816 819 822 825 827 829 831 833 834 835 837 838 839 840 841 841 841 841 842 842 842 841 840 840 840 838
740 735 733 722 731 727 721 706 719 727 736 747 753 779 773 778 783 789 794 798 802 808 813 817 821 824 826 828 830 832 833 834 836 838 839 842 844 843 842 842 842 842 842 842 841 841 841 840 838
729 731 730 714 728 737 718 714 715 722 738 733 746 774 778 773 779 784 791 799 802 808 812 817 820 823 826 828 830 832 833 835 836 838 841 844 844 845 845 842 842 842 842 842 842 841 841 840 838
739 775 745 728 719 727 713 725 714 717 732 736 740 754 762 770 774 780 790 794 801 807 811 816 820 823 825 828 830 832 834 835 836 838 842 840 838 840 844 843 842 842 843 843 844 843 842 840 838
758 785 751 728 708 718 713 719 724 734 741 742 746 751 762 768 772 778 787 794 800 806 811 814 818 821 824 827 830 832 834 835 835 838 841 841 840 842 843 842 843 843 844 845 844 843 841 841 840
751 783 739 711 709 704 713 717 718 733 749 743 752 756 763 766 771 776 784 791 798 804 808 811 814 819 822 824 827 829 831 832 833 835 838 840 841 841 841 841 842 840 844 844 842 841 840 838 841
747 730 717 704 695 704 711 709 723 724 730 732 742 754 762 766 770 774 779 787 795 801 804 808 812 817 819 822 824 826 828 828 830 832 835 838 839 839 839 840 841 842 844 843 844 841 844 842 841
708 715 710 687 693 697 700 712 721 725 722 729 741 754 761 765 769 772 776 784 792 799 801 806 810 814 819 821 823 824 826 828 830 831 832 835 837 838 838 839 841 842 843 843 843 843 842 842 840
690 690 691 686 691 695 710 712 715 722 720 731 741 752 758 762 766 771 774 781 788 795 798 802 807 812 817 819 821 822 824 827 828 831 831 833 836 837 839 839 839 841 842 842 842 842 842 841 840
691 702 695 694 693 698 696 722 725 717 721 733 742 749 754 758 763 767 772 778 785 791 796 800 805 810 815 818 821 822 824 826 829 831 832 832 834 836 837 838 839 839 841 841 841 841 840 839 840
707 701 721 692 691 693 705 740 714 712 723 734 740 745 750 754 758 764 770 776 783 788 793 798 803 806 812 817 820 822 823 825 827 829 830 832 833 836 837 838 837 838 838 839 838 840 839 838 838
711 728 718 705 687 697 710 747 724 711 721 732 736 740 745 751 754 760 766 772 778 785 790 795 800 803 807 812 817 820 821 823 825 827 829 829 831 833 835 835 836 837 837 836 837 838 838 837 838
729 718 707 707 694 695 713 745 738 720 718 725 730 735 740 745 749 755 761 768 774 781 787 792 797 801 803 808 813 817 819 821 822 823 825 827 830 831 832 834 833 834 834 836 837 838 838 839 838
701 701 704 687 691 700 712 748 752 729 718 719 723 729 734 739 743 749 757 763 770 776 782 787 793 797 801 804 809 813 816 818 819 821 821 825 827 828 830 832 833 833 833 836 837 838 839 838 837
702 703 697 679 690 699 702 722 717 710 706 708 714 722 726 731 736 743 750 757 764 770 776 782 788 792 796 801 805 810 811 812 813 816 819 821 823 825 827 829 830 831 832 835 836 837 838 837 837
702 703 695 693 682 683 694 712 702 693 696 697 700 705 714 722 729 735 743 751 757 763 769 776 783 789 793 799 803 806 809 810 811 812 816 817 819 823 825 827 829 830 832 833 836 837 838 838 838
709 681 683 688 693 723 693 733 707 701 699 698 696 698 703 711 718 724 733 743 750 757 764 771 778 784 790 795 799 801 804 806 808 811 812 813 817 820 822 825 827 829 831 832 834 836 837 838 839
689 673 680 682 692 698 716 731 709 692 703 695 691 691 692 696 705 714 722 733 743 751 758 765 772 779 785 790 794 798 800 803 805 807 809 812 814 817 820 823 825 828 831 832 833 835 837 838 838
667 679 678 678 686 723 706 723 714 699 701 693 677 680 682 685 691 701 711 722 732 741 749 757 764 772 778 785 790 793 796 799 802 804 804 808 810 815 819 822 823 826 828 830 832 835 836 837 837
672 690 717 723 713 717 682 705 697 674 672 671 681 689 672 675 680 690 700 709 720 729 739 747 755 763 771 778 784 788 792 795 797 800 801 805 808 812 816 818 819 823 826 828 830 832 833 836 836
675 679 702 738 722 710 672 693 677 658 659 664 670 674 656 665 671 681 690 699 709 719 728 738 746 755 763 770 777 782 787 791 792 796 798 801 804 806 808 812 815 820 821 821 821 821 825 830 835
668 683 664 691 681 693 673 661 644 643 654 656 666 654 653 656 661 669 679 689 699 710 719 727 737 747 755 763 770 776 780 783 787 791 794 797 800 801 802 806 810 814 815 818 819 821 820 820 827
650 649 688 681 717 714 683 677 673 657 666 679 654 656 649 647 650 659 670 681 691 702 712 721 730 737 747 755 761 768 772 776 782 786 788 792 795 798 798 800 804 808 814 815 819 822 822 820 819
660 667 661 664 673 692 702 675 628 637 643 648 646 643 646 643 642 649 658 670 682 695 705 714 723 732 739 747 754 760 765 769 775 778 781 784 789 792 795 797 800 804 808 812 816 819 821 818 818
635 650 656 679 684 666 670 661 611 619 621 627 631 632 631 632 634 638 646 659 672 682 695 705 716 724 731 738 746 752 757 762 766 771 774 778 781 786 789 792 794 798 803 807 810 813 816 815 815
Wind_Speed
20 19 15 8 3 3 3 7 16 11 13 13 14 10 10 2 2 11 19 22 24 23 21 20 22 21 20 20 24 23 22 20 19 18 19 18 17 16 16 15 13 12 12 11 11 11 12 12 11
19 18 13 8 4 5 5 17 18 5 16 26 20 13 16 21 23 20 20 25 24 24 21 19 20 18 18 21 22 20 20 18 16 16 16 16 14 14 13 12 10 11 10 10 10 11 11 11 10
19 23 3 7 4 4 6 10 16 18 11 9 14 12 12 20 20 19 29 28 23 24 21 21 18 18 18 19 19 18 16 16 15 13 13 13 12 12 12 10 9 9 8 9 9 10 10 9 9
11 8 10 13 16 9 14 13 14 16 20 18 21 19 23 26 29 31 29 25 23 20 19 19 18 17 18 17 16 16 15 15 13 12 12 11 10 10 9 8 7 7 7 8 9 9 9 8 7
17 5 8 4 16 16 11 21 17 9 23 24 24 23 21 28 32 30 27 23 24 21 18 17 18 17 17 16 15 15 14 13 11 11 10 9 9 8 7 6 5 5 6 7 8 9 9 7 6
8 7 15 3 9 12 11 14 11 19 21 24 23 19 16 35 34 27 26 23 21 21 19 17 17 16 17 15 15 14 13 11 10 9 8 7 6 5 4 4 4 5 5 6 7 7 8 7 5
16 13 15 8 9 9 10 2 16 16 18 20 22 17 19 24 31 26 24 22 25 26 21 18 16 16 16 15 15 13 12 11 9 7 6 4 3 2 3 3 5 6 5 6 6 6 6 6 5
9 13 21 3 13 12 8 14 6 13 21 21 19 15 17 22 35 27 29 23 28 24 21 22 17 17 15 15 14 12 10 9 7 5 4 2 1 5 3 2 4 8 5 5 6 5 6 4 4
10 2 13 9 14 15 10 12 12 18 14 15 10 17 26 26 29 30 40 30 23 23 22 19 18 17 18 15 12 10 8 8 6 4 3 4 4 2 11 2 5 6 7 5 7 6 6 3 5
7 6 6 17 5 12 11 13 15 12 14 8 24 24 29 26 25 28 25 21 23 21 18 21 20 17 18 15 13 9 7 7 5 5 7 4 9 7 9 5 6 6 6 8 6 4 5 9 7
13 6 16 30 15 14 11 17 11 19 13 13 26 24 22 23 22 22 27 25 29 22 22 21 22 22 17 20 16 14 14 15 10 10 7 7 4 2 5 2 1 7 4 2 2 5 9 5 8
12 16 24 16 10 9 13 17 12 13 15 19 22 23 21 20 18 21 27 26 24 20 22 27 24 22 16 20 13 20 20 14 18 15 11 8 3 4 4 1 6 4 5 4 4 5 5 5 8
17 26 21 7 11 9 9 15 17 8 20 19 23 24 22 20 21 22 22 25 27 23 23 32 28 23 17 12 14 13 10 12 10 13 11 9 8 8 5 5 4 6 6 6 4 5 4 8 6
18 11 13 4 9 7 15 16 14 15 17 21 22 23 21 21 23 22 21 23 27 25 19 23 22 21 17 13 7 4 6 5 6 6 14 9 8 8 4 3 6 10 7 5 1 8 7 8 8
21 18 7 9 10 9 11 17 12 19 15 20 20 21 21 20 25 22 21 22 22 22 21 22 22 21 21 16 11 6 8 7 9 10 6 6 6 7 12 6 8 10 4 5 4 6 6 9 11
22 18 13 19 15 11 14 8 14 21 17 19 20 20 20 20 23 24 23 23 24 23 22 21 21 25 24 19 15 13 13 14 13 8 14 11 7 8 9 8 10 9 6 4 3 6 10 13 7
22 17 19 9 13 16 16 9 10 15 16 19 18 19 19 18 20 25 26 24 26 24 23 23 21 22 26 22 18 17 15 14 14 13 8 10 9 7 6 11 11 4 4 7 5 6 8 11 8
21 21 18 16 17 18 14 14 12 22 19 19 19 19 18 20 20 25 26 26 26 27 26 26 23 20 28 24 22 16 15 9 11 18 13 9 9 7 8 11 7 5 4 4 2 4 7 8 5
23 20 24 12 7 17 18 19 21 27 23 19 20 18 20 20 20 25 26 27 26 27 25 27 24 24 21 19 19 14 10 14 20 16 13 10 13 8 10 12 9 6 6 4 3 2 4 8 4
27 27 24 15 24 24 17 27 29 28 20 19 20 19 19 19 19 20 27 26 28 27 30 29 28 23 25 20 19 19 24 23 23 22 16 13 9 10 11 8 8 11 3 5 2 3 5 7 2
28 27 22 16 20 22 18 19 21 22 20 19 19 21 20 19 20 21 21 27 28 30 30 31 30 25 26 21 22 23 17 10 3 18 18 16 15 11 12 7 5 6 3 6 5 3 2 8 1
26 26 26 22 17 12 16 13 12 16 22 21 20 19 23 22 21 20 21 27 27 29 30 31 31 30 26 30 21 21 17 12 10 10 16 20 11 11 13 9 8 7 4 8 3 3 1 4 8
26 26 26 25 21 16 22 8 15 21 18 24 22 21 20 23 22 22 23 30 31 29 32 31 33 31 29 28 25 21 17 20 17 17 16 16 14 11 12 12 11 7 9 8 6 3 2 2 7
25 24 25 22 19 15 20 14 21 20 24 22 22 22 22 21 23 22 26 33 34 32 33 35 35 34 32 30 31 26 22 23 15 12 15 13 13 16 13 14 13 10 9 8 6 5 4 3 3
28 25 15 18 17 17 22 23 15 18 23 21 10 18 22 21 20 21 22 22 33 35 35 35 37 35 34 31 30 33 25 25 23 12 18 17 18 21 19 17 16 15 13 10 9 9 6 5 3
25 25 16 20 17 19 23 21 15 24 19 14 22 35 25 23 19 21 22 20 32 36 36 35 38 37 36 35 30 31 33 21 24 21 17 20 19 22 26 26 20 17 16 17 18 17 14 11 7
27 25 26 26 23 17 18 23 23 18 19 24 25 10 13 25 22 22 22 25 28 35 37 38 36 38 37 36 35 31 32 31 25 22 25 19 20 14 27 29 25 23 22 21 21 20 18 16 12
29 19 24 20 26 25 21 21 12 19 20 22 18 22 15 19 21 21 19 22 29 32 36 36 36 39 38 37 36 35 33 34 31 29 27 29 19 19 26 29 28 25 24 24 21 18 19 17 17
20 23 24 22 20 17 17 16 16 16 24 22 20 20 21 15 17 21 21 25 30 30 33 35 36 34 37 38 36 34 35 34 35 31 31 31 29 26 27 30 30 28 27 26 25 23 19 22 18
28 28 28 17 22 18 18 16 13 14 14 20 16 15 15 13 15 17 21 20 29 32 34 36 35 36 38 38 36 37 35 35 34 36 31 32 33 28 29 32 31 31 29 30 29 26 19 22 21
Wind_Direction
168 159 151 64 322 187 169 111 94 112 104 127 87 50 108 101 99 104 137 141 132 125 124 120 123 125 123 122 125 123 123 121 115 108 101 100 96 96 94 92 91 88 83 78 73 67 66 65 69
166 170 179 107 266 29 90 88 115 164 114 107 115 149 104 87 98 114 122 137 129 129 125 123 127 129 125 125 126 127 124 123 119 110 103 96 96 95 93 90 88 80 79 73 66 61 58 59 58
183 201 213 189 154 138 101 172 101 110 122 74 106 170 90 115 116 120 137 134 129 126 126 131 133 129 127 129 129 129 128 126 116 111 102 100 98 95 93 90 79 76 72 63 56 55 54 54 55
213 242 252 263 129 201 118 102 118 99 102 104 98 87 107 104 117 130 131 133 129 129 127 132 129 128 129 129 131 133 133 128 118 112 114 107 101 99 98 87 80 78 64 53 48 47 54 56 52
213 234 252 348 93 116 119 82 55 100 94 100 106 97 104 121 125 131 134 139 145 129 132 133 136 136 131 132 137 137 135 134 124 121 115 108 102 104 99 94 86 71 54 38 34 36 48 58 55
236 252 280 82 82 104 100 138 151 102 104 114 113 100 119 126 128 139 138 149 139 139 138 139 144 140 135 141 144 141 139 138 132 131 127 122 122 122 111 78 64 47 36 26 24 32 40 47 53
249 278 287 105 117 110 86 122 129 107 127 120 117 126 134 129 140 143 151 140 142 140 136 143 144 147 146 149 143 142 141 141 145 147 146 142 146 149 116 86 57 27 16 16 22 24 34 43 40
302 291 301 153 146 121 134 89 94 128 121 129 128 135 141 157 148 149 143 147 135 134 138 148 148 151 153 155 149 144 148 151 156 168 163 140 213 281 240 61 39 8 350 10 14 24 25 32 33
183 285 289 323 110 119 164 113 94 100 122 145 107 149 145 151 151 155 146 144 136 148 142 151 152 155 158 161 164 161 161 173 189 197 168 200 150 273 240 186 338 358 28 21 2 25 23 348 352
82 329 310 255 70 129 160 142 113 126 137 146 138 137 139 160 156 140 135 137 147 149 157 163 158 163 164 162 177 170 183 193 202 214 232 262 234 194 192 298 335 357 39 50 356 9 315 309 315
154 203 287 287 149 160 160 128 140 138 166 143 131 139 151 161 163 162 142 147 147 165 171 171 167 165 175 170 167 178 193 195 195 195 227 261 282 260 279 239 79 349 303 253 238 281 352 314 325
139 188 235 251 149 165 170 133 143 154 158 149 139 149 160 164 170 171 154 161 146 170 182 177 166 169 175 167 163 198 194 196 202 186 205 232 283 265 313 277 2 346 22 315 7 313 320 342 330
208 189 237 174 147 171 205 146 130 137 134 144 142 155 166 171 174 175 168 157 153 179 201 163 159 170 187 191 197 211 202 198 198 183 204 184 247 278 261 263 292 319 291 325 287 315 321 316 301
250 246 254 188 219 195 188 141 136 135 139 144 150 164 174 177 178 175 177 163 163 181 187 158 157 174 194 211 238 226 213 177 221 232 198 183 210 280 351 297 297 281 298 290 286 307 296 282 286
269 267 233 247 249 176 238 144 165 141 154 150 161 171 176 183 180 177 182 166 173 178 179 170 174 178 188 209 220 224 230 241 229 252 162 181 212 233 268 295 286 289 323 332 327 309 291 295 287
261 251 246 228 200 167 205 153 162 149 167 164 167 176 177 186 182 179 184 175 179 180 183 182 191 181 185 197 206 211 228 232 243 269 229 224 231 256 259 261 267 289 282 278 311 314 299 304 350
245 241 235 193 201 159 201 124 306 165 178 170 175 178 181 184 186 183 185 181 178 186 186 184 195 191 182 191 204 213 237 225 230 230 227 236 204 247 248 263 280 209 271 305 313 300 335 1 345
235 232 235 207 195 191 172 136 222 255 180 183 180 179 185 186 194 180 190 188 187 184 185 185 197 207 186 190 196 210 223 208 236 236 240 214 223 226 234 253 273 278 258 257 250 353 343 339 286
245 238 230 203 58 207 158 156 174 239 221 191 180 186 186 192 188 188 191 186 189 184 184 186 195 200 180 182 186 206 220 235 227 246 213 181 202 233 240 245 256 260 249 190 119 353 309 276 49
244 254 243 190 173 226 194 177 175 203 189 190 186 185 193 189 189 189 185 194 188 189 185 186 193 200 197 194 193 200 215 221 209 220 215 223 227 220 240 225 229 228 137 189 108 51 326 315 171
234 244 250 249 195 195 207 207 201 177 184 193 198 186 191 194 195 183 187 193 190 187 186 186 188 196 196 197 200 221 237 249 191 197 203 202 200 219 211 205 199 154 162 142 111 151 316 323 60
227 232 250 255 243 184 251 226 200 214 185 191 189 204 189 192 194 194 186 188 198 191 187 185 185 192 195 205 199 205 206 230 220 224 221 198 185 198 195 194 180 166 119 141 110 144 144 317 326
228 230 238 254 249 176 195 251 264 209 188 187 193 198 207 190 194 199 189 188 195 194 187 185 185 189 194 200 208 212 206 205 229 212 162 154 177 188 182 179 181 183 179 168 123 94 153 295 311
228 238 245 245 253 220 223 207 253 187 181 251 189 199 199 204 189 193 194 186 190 195 190 189 183 190 193 199 208 213 204 220 212 196 165 183 181 193 191 183 175 179 179 150 161 162 184 249 314
231 226 231 235 235 242 212 196 211 191 200 213 228 279 197 197 194 185 190 187 186 190 192 188 186 188 191 197 201 210 215 212 222 220 179 182 195 185 193 187 184 188 186 174 169 178 175 189 223
217 227 227 228 229 235 237 247 203 201 195 170 181 221 191 187 188 186 189 191 185 188 188 189 185 187 189 193 201 204 214 210 218 217 207 199 207 198 193 193 194 189 194 186 192 176 179 188 204
214 224 230 239 240 247 238 223 234 182 217 192 205 243 225 177 185 186 185 189 188 185 188 189 181 186 190 192 198 201 206 208 210 209 219 202 216 225 195 189 189 191 198 193 202 196 182 162 177
227 219 221 233 239 241 239 251 226 191 140 228 188 200 231 186 185 181 187 186 188 185 187 187 186 184 189 192 195 200 202 206 209 212 215 218 212 215 190 189 188 195 200 202 206 207 193 182 177
210 228 236 229 239 246 245 244 236 194 181 191 198 200 226 223 184 182 184 184 182 183 184 188 188 184 188 193 195 198 203 204 205 209 210 212 211 216 192 188 190 195 202 206 206 211 215 193 193
222 212 230 238 224 237 256 246 235 236 225 188 202 213 217 225 220 193 181 176 177 182 184 187 190 193 192 194 196 199 202 203 205 209 209 208 207 208 208 197 197 196 200 206 209 212 214 192 197